Regional Weather Roundup
Issued by NWS

Home | Current Version | Previous Version | Graphics & Text | Print | Product List | Glossary On
Versions: 1 2 3 4 5 6 7 8 9 10 11 12 13 14 15 16 17 18 19 20 21 22 23 24 25 26 27 28 29 30 31 32 33 34 35 36 37 38 39 40 41 42 43 44 45 46 47 48 49 50
000
ASUS45 KABQ 211901
RWRNM
NEW MEXICO REGIONAL WEATHER ROUNDUP
NATIONAL WEATHER SERVICE ALBUQUERQUE NM
1200 PM MST TUE FEB 21 2017

NOTE: "FAIR" MEANS FEW OR NO CLOUDS BELOW 12,000 FEET AGL WITH NO
       SIGNIFICANT WEATHER OR OBSTRUCTIONS TO VISION.

      THIS PRODUCT IS RELEASED AS TWO VERSIONS.  ONE VERSION NEAR
      THE TOP OF THE HOUR CONTAINING PRELIMINARY DATA FROM ALBUQUERQUE
      AND OTHER STATIONS.  A FINAL VERSION WITH ADDITIONAL DATA IS
      ISSUED ABOUT 10 MINUTES AFTER THE HOUR.

NMZ501-503-504-510>518-212000-
NORTHWEST PLATEAU/NORTHCENTRAL MOUNTAINS

CITY           SKY/WX    TMP DP  RH WIND       PRES   REMARKS
FARMINGTON     FAIR      55  33  43 E7        30.35F
LOS ALAMOS     FAIR      55  30  38 E7        30.35F
SANTA FE       FAIR      59  29  31 N17G24    30.31F
TAOS             N/A     52  27  37 W3        30.35F
ANGEL FIRE     FAIR      53  26  34 SW7       30.35F

$$
NMZ402-403-502-505>509-212000-
WESTCENTRAL MOUNTAINS/SOUTHWEST MOUNTAINS

CITY           SKY/WX    TMP DP  RH WIND       PRES   REMARKS
GALLUP         FAIR      55  37  50 VRB7      30.40F
GRANTS         FAIR      59  32  35 NW13      30.40F
SILVER CITY    FAIR      64  32  30 CALM      30.35F

$$
NMZ407-409-411-412-212000-
SOUTHERN DESERTS

CITY           SKY/WX    TMP DP  RH WIND       PRES   REMARKS
DEMING         FAIR      64  40  41 SW3       30.33F
LAS CRUCES     FAIR      64  32  30 S3        30.32F
HOLLOMAN AFB   FAIR      68  32  26 N14       30.31F
ALAMOGORDO     FAIR      68  32  26 N12       30.28F
T OR C         FAIR      62  34  35 MISG      30.32F

$$
NMZ519>523-212000-
CENTRAL VALLEYS/CENTRAL HIGHLANDS

CITY           SKY/WX    TMP DP  RH WIND       PRES   REMARKS
ALBUQUERQUE    FAIR      59  33  37 CALM      30.33F
DOUBLE EAGLE   SUNNY     59  34  38 NW14G22   30.35F
MORIARTY ARPT  FAIR      65  28  24 N17       30.30F
CLINES CORNERS FAIR      59  24  26 NW25G35   30.29F
BELEN          FAIR      61  33  34 NW9G20    30.33F
SOCORRO        FAIR      63  34  33 N10G17    30.32F

$$
NMZ524>526-539-540-212000-
SOUTHCENTRAL MOUNTAINS

CITY           SKY/WX    TMP DP  RH WIND       PRES   REMARKS
RUIDOSO        FAIR      59  28  31 N7        30.34F

$$
NMZ527>531-212000-
NORTHEAST HIGHLANDS/NORTHEAST PLAINS

CITY           SKY/WX    TMP DP  RH WIND       PRES   REMARKS
LAS VEGAS      FAIR      72  -5   4 N20G26    30.23F
RATON          NOT AVBL
CLAYTON        FAIR      76  14   9 N9        30.12F

$$
NMZ532>537-212000-
EASTCENTRAL PLAINS

CITY           SKY/WX    TMP DP  RH WIND       PRES   REMARKS
TUCUMCARI      FAIR      69  18  14 CALM      30.11F
CANNON AFB     NOT AVBL
CLOVIS AIRPORT FAIR      72  25  17 CALM      30.13F

$$
NMZ028-029-538-212000-
SOUTHEAST PLAINS

CITY           SKY/WX    TMP DP  RH WIND       PRES   REMARKS
ROSWELL        FAIR      79  30  16 NW23G30     N/A
ARTESIA        FAIR      77  34  20 CALM      30.14F
CARLSBAD       FAIR      79  24  13 VRB6      30.11F
HOBBS          SUNNY     73  30  20 W14G24    30.15F


$$




USA.gov is the U.S. government's official web portal to all federal, state and local government web resources and services.